NOAA 17 DEB

Satellite information

Favourite Embed

Satellite Type and Status

DEBRISIN ORBIT

Key statistics

Satellite NOAA 17 DEB at a glance.

Uptime

8352

Days in orbit

Revolutions

≈ 13.6

Per day

Orbit

SSO

Sun Synchronous Orbit

Inclination

98.4

Latest

Satellite identification and parameters

Extended collection of information and parameters for NOAA 17 DEB.

Object identification

Identified? True

Debris? True

Object name: NOAA 17 DEB

International designator: 2002-032BC

Object number (NORAD): 48719

Object ID (CCSDS): 48719

Country: UNITED STATES OF AMERICA (US)

Current information (Y/N): Y

RCS size: SMALL

Orbital parameters

Period: 105.516 minutes

Inclination: 98.4037 deg

SMA: 7396.722 km

Apoapsis: 1258.805 km

Periapsis: 778.368 km

RAAN: 246.8264 deg

Eccentricy: 0.0324763

Argument of periapsis: 141.695 deg

Mean anomaly: 220.7754 deg

Mean motion: 13.64720949 rev/day

Mean motion (dot): 0.00001157 rev/day2

B* drag term: 0.0010322 1/REarth

Two-line elements (TLE)

Creation date: May 6, 2025, 3:54 a.m.

Reference frame: TEME

Reference center: EARTH

Epoch: May 5, 2025, 8:07 p.m. UTC

TLE line 0: 0 NOAA 17 DEB

TLE line 1: 1 48719U 02032BC 25125.83852967 .00001157 00000-0 10322-2 0 9993

TLE line 2: 2 48719 98.4037 246.8264 0324763 141.6950 220.7754 13.64720949205802

Live tracking on map

Real-time ground track for satellite NOAA 17 DEB.

In-orbit conjunctions

A list of the most updated potential collisions computed for object NOAA 17 DEB.

Target Orbit TCA Probability of collision Miss distance Type
METEOR 2-6 DEB LEO 2024-11-10 16:25:15 0.0001215685 250.0 (m) DEBRIS

Associated space launch

NOAA M carried weather imagers and microwave and infrared sounders, as well as a SARSAT search-and-rescue package. It had an on-orbit mass of 1475 kg.

NOAA 17 DEB was lifted into orbit during the mission ‘Titan II SLV | NOAA 17’, on board a Titan II SLV space rocket.

The launch took place on June 24, 2002, 6:23 p.m. from Space Launch Complex 4W.

For more information about the launch, click the button.

Launch to space Titan II SLV | NOAA 17
Titan II SLV | NOAA 17

Agency: N/A

Status: Launch Successful

Launch date: June 24, 2002, 6:23 p.m. UTC

Rocket: Titan II SLV

Launch pad: Space Launch Complex 4W

Location: Vandenberg SFB, CA, USA

...

Latest news about this satellite

There are no fresh news available about this satellite. Check back as we update our databases every day.


Newsletter sign-up

Weekly statistics, charts and insights to help you stay on top of the space industry.